Weather History for KFIG - June, 2013

Change the Weather History Date:

Friday, June 28, 2013

  Actual Average (KDUJ) Record (KDUJ)
Temperature  
Mean Temperature 68 °F 67 °F  
Max Temperature 78 °F 78 °F 90 °F (1971)
Min Temperature 59 °F 57 °F 46 °F (1970)
Degree Days  
Heating Degree Days 0 1  
Month to date heating degree days 83  
Since 1 June heating degree days 83  
Since 1 July heating degree days 6885  
Cooling Degree Days 4 4  
Month to date cooling degree days 63  
Year to date cooling degree days 86  
Since 1 June cooling degree days 63  
Growing Degree Days 18 (Base 50)    
Moisture  
Dew Point 63 °F    
Average Humidity 89    
Maximum Humidity 100    
Minimum Humidity 66    
Precipitation  
Precipitation 0.25 in 0.15 in 3.68 in (1983)
Month to date precipitation 4.47  
Sea Level Pressure  
Sea Level Pressure 29.59 in    
Wind  
Wind Speed 4 mph (SW)    
Max Wind Speed 14 mph    
Max Gust Speed 21 mph    
Visibility 8 miles    
Events Fog , Rain , Thunderstorm    
T = Trace of Precipitation, MM = Missing Value Source: NWS Daily Summary

Daily Weather History Graph

Daily Weather History Graph

Search for Another Location

Airport or City:

Trip Planner

Search our weather history database for the weather conditions in past years. The results will help you decide how hot, cold, wet, or windy it might be!

Date:

Astronomy

Jun. 28, 2013 Rise Set
Actual Time 5:43 AM EDT 8:50 PM EDT
Civil Twilight 5:10 AM EDT 9:23 PM EDT
Nautical Twilight 4:27 AM EDT 10:06 PM EDT
Astronomical Twilight 3:36 AM EDT 10:57 PM EDT
Moon No Moon Rise 11:52 AM EDT (6/28)
Length of Visible Light 16h 13m
Length of Day
15h 06m
Waning Gibbous, 66% of the Moon is Illuminated
Jun 28
Waning Gibbous
Jun 30
Last Quarter
Jul 8
New
Jul 15
First Quarter
Jul 22
Full

Hourly Weather History & Observations

Time (EDT) Temp. Dew Point Humidity Pressure Visibility Wind Dir Wind Speed Gust Speed Precip Events Conditions
12:29 AM 66.2 °F 64.4 °F 94% 29.65 in 9.0 mi North 4.6 mph - N/A   Overcast
12:36 AM 66.2 °F 62.6 °F 88% 29.66 in 10.0 mi North 4.6 mph - N/A   Overcast
12:46 AM 66.2 °F 64.4 °F 94% 29.66 in 10.0 mi North 3.5 mph - N/A   Overcast
12:54 AM 66.0 °F 64.0 °F 93% 29.63 in 10.0 mi Calm Calm - N/A   Overcast
1:54 AM 64.9 °F 62.1 °F 90% 29.61 in 10.0 mi Calm Calm - N/A   Overcast
2:54 AM 64.0 °F 62.1 °F 93% 29.61 in 10.0 mi West 3.5 mph - N/A   Mostly Cloudy
3:50 AM 62.6 °F 62.6 °F 100% 29.63 in 1.5 mi Calm Calm - N/A   Mostly Cloudy
3:54 AM 63.0 °F 61.0 °F 93% 29.61 in 0.5 mi SSW 4.6 mph - N/A Fog Fog
4:01 AM 62.6 °F 62.6 °F 100% 29.63 in 0.2 mi Calm Calm - N/A Fog Fog
4:32 AM 64.4 °F 62.6 °F 94% 29.63 in 1.0 mi Calm Calm - N/A   Overcast
4:36 AM 62.6 °F 62.6 °F 100% 29.63 in 2.5 mi Calm Calm - N/A   Overcast
4:40 AM 62.6 °F 62.6 °F 100% 29.64 in 4.0 mi Calm Calm - N/A   Overcast
4:54 AM 63.0 °F 62.1 °F 97% 29.61 in 6.0 mi Calm Calm - N/A   Overcast
5:54 AM 63.0 °F 62.1 °F 97% 29.62 in 6.0 mi SSW 5.8 mph - N/A   Overcast
6:25 AM 62.6 °F 62.6 °F 100% 29.63 in 5.0 mi SW 3.5 mph - N/A   Mostly Cloudy
6:54 AM 64.0 °F 63.0 °F 96% 29.61 in 5.0 mi SSW 4.6 mph - N/A   Mostly Cloudy
7:44 AM 64.4 °F 62.6 °F 94% 29.63 in 6.0 mi SW 4.6 mph - N/A   Overcast
7:51 AM 64.4 °F 62.6 °F 94% 29.63 in 6.0 mi SW 3.5 mph - N/A   Mostly Cloudy
7:54 AM 64.9 °F 63.0 °F 93% 29.61 in 6.0 mi SSW 3.5 mph - N/A   Mostly Cloudy
8:12 AM 66.2 °F 64.4 °F 94% 29.62 in 10.0 mi SSW 4.6 mph - N/A   Mostly Cloudy
8:54 AM 66.9 °F 64.0 °F 90% 29.59 in 10.0 mi SW 4.6 mph - N/A   Mostly Cloudy
9:01 AM 68.0 °F 64.4 °F 88% 29.61 in 10.0 mi SSW 4.6 mph - N/A   Scattered Clouds
9:20 AM 68.0 °F 64.4 °F 88% 29.61 in 10.0 mi SSW 8.1 mph - N/A   Mostly Cloudy
9:29 AM 68.0 °F 64.4 °F 88% 29.61 in 10.0 mi SSW 6.9 mph - N/A   Mostly Cloudy
9:54 AM 69.1 °F 64.0 °F 84% 29.58 in 10.0 mi SW 8.1 mph - N/A   Overcast
10:12 AM 69.8 °F 64.4 °F 83% 29.61 in 10.0 mi SW 8.1 mph - N/A   Overcast
10:15 AM 69.8 °F 64.4 °F 83% 29.61 in 10.0 mi SW 5.8 mph - N/A   Overcast
10:26 AM 69.8 °F 64.4 °F 83% 29.60 in 10.0 mi SSW 5.8 mph - N/A   Mostly Cloudy
10:37 AM 69.8 °F 64.4 °F 83% 29.60 in 10.0 mi SW 5.8 mph - N/A   Mostly Cloudy
10:42 AM 71.6 °F 64.4 °F 78% 29.60 in 10.0 mi SSW 5.8 mph - N/A   Mostly Cloudy
10:54 AM 72.0 °F 64.0 °F 76% 29.57 in 10.0 mi SW 6.9 mph - N/A   Mostly Cloudy
11:32 AM 71.6 °F 64.4 °F 78% 29.59 in 10.0 mi Variable 4.6 mph - N/A   Overcast
11:54 AM 73.9 °F 64.9 °F 73% 29.55 in 10.0 mi Variable 3.5 mph - N/A   Mostly Cloudy
12:16 PM 73.4 °F 64.4 °F 73% 29.57 in 10.0 mi WSW 6.9 mph - N/A Thunderstorm Mostly Cloudy
12:27 PM 71.6 °F 64.4 °F 78% 29.57 in 2.5 mi Calm Calm - 0.06 in Rain , Thunderstorm Light Thunderstorms and Rain
12:35 PM 71.6 °F 64.4 °F 78% 29.57 in 2.0 mi SW 3.5 mph - 0.06 in Rain , Thunderstorm Light Thunderstorms and Rain
12:42 PM 71.6 °F 66.2 °F 83% 29.57 in 10.0 mi WSW 3.5 mph - 0.06 in Thunderstorm Thunderstorm
12:49 PM 73.4 °F 64.4 °F 73% 29.57 in 10.0 mi Calm Calm - 0.06 in   Mostly Cloudy
12:54 PM 73.0 °F 64.9 °F 76% 29.54 in 10.0 mi Variable 3.5 mph - 0.06 in   Mostly Cloudy
1:54 PM 77.0 °F 64.9 °F 66% 29.52 in 10.0 mi SW 6.9 mph - N/A Thunderstorm Partly Cloudy
2:54 PM 72.0 °F 64.0 °F 76% 29.52 in 10.0 mi South 13.8 mph 20.7 mph 0.00 in Rain , Thunderstorm Light Rain
3:54 PM 64.0 °F 62.1 °F 93% 29.57 in 10.0 mi NNW 8.1 mph - 0.05 in Rain , Thunderstorm Light Rain
4:03 PM 64.4 °F 60.8 °F 88% 29.59 in 10.0 mi North 8.1 mph - 0.00 in Thunderstorm Overcast
4:22 PM 62.6 °F 60.8 °F 94% 29.58 in 3.0 mi West 3.5 mph - 0.03 in Rain Heavy Rain
4:54 PM 63.0 °F 61.0 °F 93% 29.55 in 10.0 mi NNW 3.5 mph - 0.04 in   Overcast
5:54 PM 63.0 °F 61.0 °F 93% 29.55 in 7.0 mi South 3.5 mph - 0.06 in Rain Light Rain
6:54 PM 62.1 °F 61.0 °F 96% 29.56 in 7.0 mi SW 9.2 mph - 0.01 in Rain Light Rain
7:54 PM 62.1 °F 60.1 °F 93% 29.55 in 9.0 mi SW 6.9 mph - 0.02 in Rain Light Rain
8:12 PM 60.8 °F 60.8 °F 100% 29.56 in 7.0 mi South 6.9 mph - 0.00 in   Overcast
8:24 PM 60.8 °F 60.8 °F 100% 29.56 in 6.0 mi SW 3.5 mph - 0.00 in   Overcast
8:39 PM 60.8 °F 60.8 °F 100% 29.57 in 6.0 mi SSW 4.6 mph - 0.00 in   Mostly Cloudy
8:54 PM 61.0 °F 60.1 °F 97% 29.55 in 6.0 mi SSW 5.8 mph - 0.00 in   Mostly Cloudy
9:54 PM 61.0 °F 59.0 °F 93% 29.57 in 10.0 mi SSW 3.5 mph - N/A   Overcast
10:54 PM 60.1 °F 57.9 °F 93% 29.58 in 6.0 mi South 6.9 mph - N/A   Scattered Clouds
11:16 PM 60.8 °F 57.2 °F 88% 29.59 in 8.0 mi SW 4.6 mph - N/A   Partly Cloudy
11:54 PM 59.0 °F 57.9 °F 96% 29.57 in 3.0 mi SSW 3.5 mph - 0.01 in   Mostly Cloudy